Location: Cactus School
(34.5700°N, 118.0931°W)
Time: 23:37:35
(UTC-08:00)

Tiros 1 - Pass Details

Date: 01 December 2019
Orbit: 630 x 664 km, 48.4° (Epoch: 12 December)

Event Time Altitude Azimuth Distance (km) Brightness Sun altitude
Rises 10:24:11 0° 271° (W) 2,930 10.3 30.7°
Reaches altitude 10° 10:26:55 10° 286° (WNW) 2,017 9.5 30.9°
Maximum altitude 10:30:38 23° 339° (NNW) 1,348 8.5 31.1°
Drops below altitude 10° 10:34:19 10° 32° (NNE) 2,011 9.4 31.4°
Sets 10:37:03 0° 47° (NE) 2,918 10.3 31.6°
